Regional Weather Roundup
Issued by NWS

Home | Current Version | Previous Version | Graphics & Text | Print | Product List | Glossary On
Versions: 1 2 3 4 5 6 7 8 9 10 11 12 13 14 15 16 17 18 19 20 21 22 23 24 25 26 27 28 29 30 31 32 33 34 35 36 37 38 39 40 41 42 43 44 45 46 47 48 49 50
000
ASUS43 KTOP 040608
RWRKS

WEATHER ROUNDUP FOR KANSAS
NATIONAL WEATHER SERVICE GOODLAND KS
100 AM CDT SAT JUL 04 2015

NOTE:  "FAIR" INDICATES FEW OR NO CLOUDS BELOW 12,000 FEET WITH NO
SIGNIFICANT WEATHER AND/OR OBSTRUCTIONS TO VISIBILITY.

KSZ001>006-013>018-027>032-041>047-040700-
NORTHWEST KANSAS

CITY           SKY/WX    TMP DP  RH WIND       PRES   REMARKS
GOODLAND       MOCLDY    68  58  70 S10       30.06F
6HR MIN TEMP:  68; 6HR MAX TEMP:  85;

HAYS           CLEAR     64  55  72 E6        30.02S
HILL CITY      CLEAR     66  60  81 E3        30.02F
6HR MIN TEMP:  65; 6HR MAX TEMP:  85;

RUSSELL        CLEAR     67  62  84 SE8       30.00F
6HR MIN TEMP:  66; 6HR MAX TEMP:  82;

$$

KSZ061>065-074>080-084>089-040700-
SOUTHWEST KANSAS

CITY           SKY/WX    TMP DP  RH WIND       PRES   REMARKS
DODGE CITY     CLEAR     66  58  75 SE5       30.04S
6HR MIN TEMP:  66; 6HR MAX TEMP:  82;

ELKHART          N/A     67  58  73 S5          N/A
GARDEN CITY    PTCLDY    67  62  84 S7        30.03F
6HR MIN TEMP:  67; 6HR MAX TEMP:  78; 6HR PCP: TRACE;

GREAT BEND     CLEAR     70  61  73 SE7       30.02S
LIBERAL        MOCLDY    70  63  78 SW3       30.06
PRATT          CLEAR     68  59  73 E5        30.03S
$$

KSZ066>073-081>083-090>101-040700-
SOUTHEAST KANSAS

CITY           SKY/WX    TMP DP  RH WIND       PRES   REMARKS
CHANUTE        MOCLDY    71  66  84 NE6       29.98F
6HR MIN TEMP:  71; 6HR MAX TEMP:  81;

COFFEYVILLE    PTCLDY    72  68  87 NE6       29.95F
6HR MIN TEMP:  72; 6HR MAX TEMP:  82;

HUTCHINSON     CLEAR     65  61  87 E7        30.01S
6HR MIN TEMP:  65; 6HR MAX TEMP:  83;

MEDICINE LODGE   N/A     73  63  70 CALM      30.00R
NEWTON         CLEAR     68  59  73 E3        30.03F
PARSONS        CLOUDY    72  69  90 CALM      29.97F
6HR MIN TEMP:  69; 6HR MAX TEMP:  82;

WICHITA INTL   CLEAR     72  63  73 NE5       29.99F
6HR MIN TEMP:  71; 6HR MAX TEMP:  83;

WICHITA JABRA  CLEAR     66  63  90 NE6       30.00S
6HR MIN TEMP:  66; 6HR MAX TEMP:  81;

WICHITA MCCONL CLEAR     72  64  75 NE6       30.00S
WINFIELD       CLEAR     71  64  78 NE3       29.99S
6HR MIN TEMP:  71; 6HR MAX TEMP:  83;

$$

KSZ007>012-019>026-033>040-048>060-102>105-040700-
NORTHEAST KANSAS

CITY           SKY/WX    TMP DP  RH WIND       PRES   REMARKS
CONCORDIA      CLEAR     64  60  87 SE3       30.01F
6HR MIN TEMP:  63; 6HR MAX TEMP:  79;

EMPORIA        PTCLDY    65  62  90 CALM      30.00S
6HR MIN TEMP:  64; 6HR MAX TEMP:  79;

LAWRENCE       PTCLDY    62  60  93 NW5       30.00S
6HR MIN TEMP:  62; 6HR MAX TEMP:  78;

MANHATTAN      PTCLDY    63  60  90 CALM      30.01R
6HR MIN TEMP:  62; 6HR MAX TEMP:  80; 6HR PCP: TRACE;

MARYSVILLE     CLEAR     63  59  88 CALM      30.01S
OLATHE IND     CLEAR     67  59  75 NE3       30.01R
6HR MIN TEMP:  65; 6HR MAX TEMP:  78;

OLATHE EXE     CLEAR     67  59  75 NE5       29.99S
6HR MIN TEMP:  65; 6HR MAX TEMP:  78;

SALINA         CLEAR     71  61  70 SE7       30.01S
6HR MIN TEMP:  71; 6HR MAX TEMP:  83;

TOPEKA BILLARD MOCLDY    64  62  93 CALM      30.00S FOG
6HR MIN TEMP:  64; 6HR MAX TEMP:  79;

TOPEKA FORBES  MOCLDY    66  61  84 CALM      30.00S
$$



USA.gov is the U.S. government's official web portal to all federal, state and local government web resources and services.